Theta_e
351 351 354 355 358 356 360 358 357 352 352 357 353 351 352 350 353 342 348 344 347 347 341 340 348 350 344 338 337 338 343 342 346 342 346 347 345 349 353 351 350 350 349 351 351 352 351 350 349 347 346 346 345 344 344 343 343 343 341 341 340 340 338 338 338 337 336 335 333 331 331 331 331 331 331 332 333 335 335 337 336 336 336 335 334
357 355 350 354 356 356 357 357 356 359 353 356 352 354 355 353 350 346 341 342 341 348 350 342 339 344 341 342 343 341 345 343 337 340 343 349 347 348 353 354 352 349 350 348 351 351 352 351 349 348 348 347 346 346 345 345 344 344 342 342 342 343 340 339 339 338 337 337 336 332 331 331 331 330 331 332 333 334 336 336 337 335 336 335 334
357 356 356 354 354 356 354 352 351 350 358 350 352 351 356 348 352 346 345 347 347 345 348 346 343 338 339 338 341 344 343 345 341 339 335 342 343 347 352 354 353 352 350 350 350 351 352 352 350 349 348 348 347 347 347 345 345 345 344 344 342 342 341 340 340 339 339 338 337 335 333 332 332 331 331 332 333 334 335 335 336 336 335 335 334
358 354 355 354 351 351 355 357 355 356 347 356 358 352 346 344 348 355 353 348 348 348 351 350 343 339 339 335 334 334 336 337 340 337 338 337 334 343 346 350 353 354 352 351 350 350 352 352 351 350 349 349 348 347 348 347 346 346 345 343 342 341 341 341 341 340 340 339 338 337 335 334 333 332 332 332 333 334 335 334 336 335 335 335 333
359 359 358 356 357 360 357 358 358 358 354 355 350 352 351 357 358 350 355 354 352 347 348 348 347 339 337 334 335 337 336 334 335 339 334 336 341 335 343 345 347 353 353 353 352 351 351 352 352 351 351 350 349 348 349 348 347 347 346 345 343 342 341 341 341 341 341 340 339 338 337 336 334 333 332 332 332 334 335 335 336 335 334 335 333
356 357 358 355 356 355 356 357 354 356 355 361 354 357 353 353 349 345 346 344 341 341 341 339 339 338 336 335 338 343 336 334 334 332 333 335 340 343 336 340 345 345 347 353 353 352 352 352 352 352 351 350 350 348 348 348 347 346 346 346 345 343 342 341 341 341 341 341 340 339 337 337 336 334 332 332 333 334 336 336 336 336 335 335 334
357 358 356 356 358 358 356 357 359 355 354 354 354 359 355 352 347 347 349 348 344 341 341 342 340 337 338 342 340 333 333 332 333 332 330 334 343 342 342 345 342 345 349 348 352 352 352 352 352 352 352 352 350 350 349 348 349 348 347 346 345 344 343 342 341 341 342 341 340 339 338 337 336 335 334 333 334 334 336 336 335 336 335 335 334
356 358 360 360 358 356 360 360 363 362 362 360 356 352 355 349 351 348 348 341 343 342 342 340 342 339 341 341 341 335 332 334 335 332 333 335 342 341 344 339 344 347 349 348 348 349 352 352 352 352 352 351 351 350 349 349 349 349 348 347 346 346 344 343 342 341 342 341 340 339 338 338 337 336 334 334 334 335 336 336 335 335 334 335 334
359 359 361 359 359 356 359 360 357 359 361 359 357 358 351 352 357 354 349 345 343 343 344 345 339 339 340 338 338 341 339 337 338 338 335 333 333 329 336 339 345 345 351 350 348 349 351 352 352 352 352 351 351 350 350 350 349 348 348 348 347 346 345 345 344 342 342 342 341 340 339 339 338 337 335 334 334 335 336 337 336 334 335 335 335
360 361 362 361 360 358 360 357 356 361 360 360 354 355 356 356 351 350 349 346 343 342 341 340 337 335 337 338 343 344 343 341 339 340 337 328 330 333 335 338 341 340 344 346 346 346 346 348 350 351 351 351 351 350 350 350 350 349 348 347 347 346 346 345 345 343 343 343 342 340 340 339 339 338 336 334 334 335 336 337 337 334 334 334 335
358 359 360 360 360 355 350 340 339 344 350 352 350 350 357 359 354 349 352 349 347 345 340 343 339 334 333 339 339 343 344 343 339 334 340 326 327 330 330 331 338 341 341 343 344 345 344 346 348 347 347 351 350 350 350 350 350 350 350 348 347 346 346 345 344 345 343 343 342 341 341 340 339 338 337 335 335 336 336 336 337 337 335 335 334
356 356 358 359 349 339 336 337 337 338 338 341 346 349 351 349 350 347 346 348 347 342 347 337 333 332 335 342 340 341 342 343 342 336 335 328 331 334 332 329 333 336 329 328 331 339 346 343 346 344 343 348 350 349 349 349 349 349 350 349 348 347 346 346 346 345 345 343 343 343 342 341 340 339 338 336 336 336 337 336 336 337 337 336 335
355 355 356 347 338 338 337 338 337 337 337 338 344 345 355 352 349 348 346 343 345 345 340 334 328 329 347 331 333 339 345 342 339 339 333 333 338 336 334 332 333 330 331 329 329 332 334 334 337 339 342 346 348 349 348 348 348 348 349 349 349 347 346 346 346 346 345 345 344 344 342 342 341 340 339 338 336 336 336 337 336 337 336 336 335
360 359 348 339 338 338 339 337 337 336 338 339 344 349 350 349 348 346 349 343 342 341 343 332 331 329 325 327 330 337 344 344 341 341 332 332 335 335 333 333 325 326 330 327 327 330 328 329 334 333 332 332 335 346 345 345 344 346 348 348 348 347 346 346 347 346 345 345 344 344 343 342 341 341 339 338 337 337 336 336 337 337 337 336 335
351 347 338 341 341 339 337 337 336 337 337 338 340 344 347 345 344 343 342 344 339 343 343 333 326 328 329 326 327 324 337 343 343 335 332 335 334 333 332 324 324 328 327 331 330 327 329 327 330 331 331 331 331 334 344 346 345 345 345 346 347 348 347 347 347 346 345 344 343 343 343 342 342 341 340 339 338 338 337 337 337 338 337 336 335
346 343 340 340 340 340 338 337 336 337 338 338 339 339 345 343 342 342 341 338 336 336 342 339 333 331 326 327 324 323 322 326 324 328 333 334 334 331 328 328 330 329 331 334 331 331 330 329 329 330 329 329 330 329 334 345 344 344 346 346 346 347 347 347 347 346 346 344 342 342 343 342 342 341 340 339 339 338 337 337 337 339 337 335 335
346 344 342 341 340 340 339 338 338 338 338 338 339 340 344 344 344 341 340 337 336 338 335 339 336 335 330 324 322 320 322 322 319 324 335 325 325 330 334 330 331 334 333 333 336 334 332 332 333 330 328 328 328 330 333 342 341 344 344 345 347 347 347 348 347 346 345 344 342 342 342 342 342 342 341 339 339 337 336 336 337 339 336 336 335
345 343 340 343 339 339 339 338 339 339 338 339 339 340 341 343 342 342 340 341 337 336 336 336 338 334 333 335 330 320 321 323 319 318 325 328 337 329 328 328 331 328 329 334 334 334 335 333 331 330 330 328 327 327 333 340 348 344 344 345 347 347 346 346 346 345 345 345 344 342 341 342 342 342 341 340 339 338 337 336 338 339 337 336 335
339 341 341 341 341 340 339 339 338 340 341 340 338 338 340 342 343 341 341 341 338 331 332 331 333 335 334 333 333 337 331 323 319 319 316 326 324 329 330 327 329 327 329 332 331 330 335 332 331 329 330 328 326 329 333 341 344 342 344 342 341 342 343 343 344 345 345 345 345 344 343 342 342 341 341 340 339 339 337 335 336 338 337 336 335
338 340 342 341 340 340 338 338 338 337 339 339 339 340 340 342 344 342 342 340 338 333 332 334 327 329 332 331 329 330 331 329 328 323 320 316 320 327 329 330 329 329 330 332 330 330 331 331 330 329 327 327 329 330 333 342 341 340 340 341 341 342 343 344 344 345 345 345 345 344 344 343 343 342 342 341 339 338 337 336 336 338 337 337 335
338 338 342 342 342 340 338 338 339 339 340 339 340 341 341 341 342 341 339 339 337 336 333 332 331 332 325 328 328 328 328 327 328 327 321 318 318 319 322 327 329 329 337 332 331 333 332 330 331 330 328 328 331 330 339 339 336 335 337 341 340 339 341 343 344 344 344 344 345 345 345 345 343 343 341 341 339 340 337 335 336 337 337 337 335
342 343 343 345 343 340 339 339 339 339 341 340 339 339 341 342 342 340 340 337 337 334 332 333 334 333 329 329 325 325 325 326 326 324 324 324 316 317 320 319 317 327 328 326 331 331 330 331 331 329 329 326 322 325 337 334 332 333 336 340 339 338 339 341 343 343 344 344 344 345 344 342 341 341 340 338 339 340 339 338 336 337 337 336 335
347 345 341 339 339 340 337 336 336 338 341 341 340 340 340 341 342 340 337 336 335 333 332 333 333 331 333 330 329 327 325 323 325 326 322 320 319 319 320 319 320 318 326 330 329 328 329 331 328 329 328 324 323 328 331 326 327 330 335 338 340 337 338 340 342 343 343 344 344 344 345 343 342 340 341 341 341 340 339 340 338 338 337 336 335
344 344 345 346 344 339 338 338 339 340 341 343 342 342 342 342 340 336 334 335 335 333 332 330 330 332 331 330 329 329 329 327 326 327 326 323 321 319 318 320 320 320 324 325 325 323 325 326 330 333 333 327 323 334 332 329 325 329 329 335 337 338 339 340 341 342 342 343 343 344 344 343 341 340 340 340 341 338 339 340 339 338 337 336 335
343 342 342 344 345 343 340 338 336 334 335 340 341 340 339 338 337 335 334 333 332 332 331 328 329 329 330 330 330 329 327 331 332 329 327 326 325 319 320 322 317 318 320 321 321 324 329 327 328 330 329 326 326 333 328 332 327 329 328 327 329 333 340 341 341 341 342 342 342 343 344 344 341 343 339 340 340 339 339 339 339 339 337 336 335
340 342 343 341 341 342 342 342 340 336 336 337 340 339 335 334 333 331 331 331 332 331 331 330 329 330 331 331 328 329 329 330 329 327 326 324 322 321 320 321 320 316 319 318 324 322 325 326 331 330 326 326 326 325 328 324 327 325 327 324 325 329 333 340 341 342 341 341 341 342 343 343 343 341 338 339 340 340 340 339 338 338 338 337 336
342 343 343 343 341 341 341 342 341 340 339 338 337 335 331 330 329 329 328 327 329 330 330 330 329 328 329 330 331 328 329 330 330 329 328 325 324 324 321 316 316 318 318 319 319 319 320 322 324 330 330 330 326 327 328 322 325 323 325 323 322 329 332 338 341 341 340 340 340 340 342 343 343 342 340 339 340 340 340 339 338 338 338 337 336
342 342 342 341 341 341 341 338 338 338 338 335 333 332 329 328 327 326 325 328 328 329 329 329 328 329 329 329 329 328 330 330 330 329 328 328 328 326 323 320 314 311 316 315 317 318 321 321 324 328 327 327 330 329 329 325 326 324 326 323 321 326 329 335 338 341 339 339 339 339 340 342 343 343 341 341 341 340 339 339 338 338 339 338 337
340 341 340 340 341 341 340 339 337 336 335 334 333 331 327 327 327 326 326 328 329 328 328 327 328 328 328 328 327 327 329 330 329 328 329 328 328 326 325 321 320 314 312 311 313 314 318 318 316 322 323 327 332 329 327 328 327 322 322 322 323 324 330 327 331 334 337 337 337 338 340 341 342 343 342 340 339 340 339 338 338 339 339 338 337
337 338 340 339 340 340 339 338 336 334 333 332 331 329 326 326 326 325 325 326 327 327 324 324 326 327 328 328 328 327 328 329 328 329 329 328 327 326 325 324 323 317 315 311 311 316 316 321 321 320 325 327 333 333 329 326 325 323 322 324 324 322 325 321 321 323 327 329 332 336 339 341 343 343 342 340 340 341 340 340 339 339 338 338 337
339 338 339 338 338 338 336 334 334 333 332 331 328 327 326 324 325 324 322 323 324 324 325 325 326 327 327 326 327 326 327 328 328 327 327 328 326 326 324 324 324 322 317 316 311 316 320 317 322 324 322 324 324 323 327 328 325 324 323 323 323 323 322 322 321 321 320 319 321 326 330 336 341 343 343 342 342 341 341 340 339 339 338 336 332
336 336 336 336 336 337 337 333 332 332 331 329 328 327 326 323 323 323 324 324 320 319 322 326 328 327 326 326 326 325 327 327 327 326 326 327 326 324 323 323 324 324 322 319 315 314 320 319 320 321 321 319 320 319 320 325 325 322 325 326 324 322 322 321 322 321 320 319 319 322 323 327 335 340 342 342 342 341 340 339 337 336 334 330 328
336 335 335 334 334 334 334 333 332 331 331 329 328 327 323 321 320 320 321 323 323 322 323 327 329 328 327 326 325 326 327 326 326 326 325 325 325 325 324 323 321 322 320 317 313 313 317 322 323 322 323 322 320 320 318 318 320 324 323 326 325 323 323 323 322 319 319 318 317 318 317 318 324 332 336 337 337 332 329 329 327 325 326 328 328
333 333 333 333 333 333 332 331 331 331 330 329 328 326 324 322 320 320 320 321 322 322 326 325 324 325 324 324 325 325 324 324 325 324 324 324 323 322 321 321 319 320 321 318 315 314 313 318 319 322 321 323 318 324 321 321 320 321 320 320 323 323 322 321 320 322 319 318 316 316 317 316 315 317 322 330 329 321 318 320 320 322 324 326 326
331 331 331 331 331 332 331 331 330 330 329 329 329 326 323 323 321 321 321 322 324 322 323 323 324 324 324 323 323 323 325 324 324 324 323 322 322 320 319 321 320 320 322 321 317 314 313 314 318 316 317 320 318 319 321 324 323 324 319 318 320 322 323 322 321 322 317 317 316 316 316 316 314 314 317 322 324 319 316 317 316 317 317 319 320
330 331 331 329 328 329 329 328 330 330 329 328 329 327 324 321 320 318 319 323 324 322 322 322 322 322 322 322 322 323 324 323 323 323 324 323 323 323 322 322 321 321 321 320 319 315 314 313 315 314 316 316 319 321 322 320 321 320 319 319 322 321 320 321 319 319 319 316 316 316 315 315 314 313 313 315 316 316 315 314 315 316 315 316 317
326 328 330 330 329 327 327 326 326 327 329 329 327 327 327 325 322 321 321 320 322 323 322 322 324 322 322 322 323 322 323 321 321 322 324 323 321 321 320 319 318 319 320 319 319 318 315 313 314 316 318 316 317 317 318 317 318 319 320 320 321 320 320 319 320 320 318 317 316 317 316 316 314 313 312 313 313 314 314 313 313 314 314 314 314
323 323 323 323 323 322 323 324 325 324 325 326 328 327 325 325 325 324 324 323 323 323 322 321 321 321 321 321 322 324 326 324 323 323 322 320 321 319 318 318 318 318 319 319 318 317 316 314 314 313 315 314 312 314 315 315 315 316 316 318 319 320 318 318 319 319 319 324 325 325 316 314 313 312 312 312 312 313 313 312 312 313 314 314 313
321 320 320 319 320 320 319 320 321 322 322 322 324 326 325 325 323 322 322 322 323 321 322 321 322 321 322 322 321 321 321 321 319 319 321 321 321 320 319 319 319 317 317 316 316 315 314 313 313 313 313 315 314 311 314 317 317 316 313 313 312 316 317 317 317 318 319 325 328 324 326 324 322 319 314 312 312 312 312 312 312 313 314 313 313
320 319 318 318 319 318 319 319 319 320 320 320 322 320 320 322 322 321 321 320 320 322 321 321 321 320 321 321 321 321 320 320 321 321 320 319 319 317 317 319 319 319 317 316 316 314 312 312 311 310 311 311 312 314 316 314 312 313 316 314 311 311 312 316 320 318 323 319 316 317 319 323 323 321 318 314 313 313 313 313 313 315 315 314 313
320 319 318 318 317 317 317 317 317 319 320 320 319 317 315 315 315 316 315 316 317 319 319 320 320 320 320 321 320 321 323 324 325 324 324 325 321 318 319 318 317 317 316 315 315 313 312 311 310 312 310 310 310 310 310 311 311 311 315 316 315 316 316 315 316 319 319 317 319 320 320 326 329 330 328 326 322 316 316 315 317 315 316 315 313
317 317 317 317 316 316 315 315 316 317 318 319 316 312 312 312 313 312 312 312 311 311 313 315 317 319 319 319 320 322 323 324 324 321 316 314 317 318 316 316 315 316 316 315 314 313 312 310 309 309 308 308 308 310 310 311 313 313 312 313 312 314 314 312 313 313 316 315 314 313 315 318 321 329 332 330 332 323 323 318 322 319 315 312 311
317 315 315 313 314 315 314 313 314 315 316 317 309 300 301 306 311 310 307 307 307 308 309 311 312 314 316 316 316 318 319 320 320 315 312 310 310 309 311 314 316 314 312 310 310 311 311 310 310 310 309 308 309 311 311 312 315 313 313 314 313 312 309 308 306 312 320 319 318 317 318 321 321 319 328 332 332 328 327 324 317 315 313 311 310
317 316 315 314 314 314 314 313 313 314 314 315 302 302 301 300 306 312 311 308 307 306 306 306 307 309 312 313 314 316 316 316 317 316 316 313 308 307 305 305 305 306 307 311 310 309 309 308 308 309 309 309 309 311 310 310 310 311 312 312 312 311 310 308 308 307 313 317 315 313 313 318 320 322 322 326 331 332 331 323 314 313 312 310 310
318 315 313 313 313 314 313 311 311 312 312 310 302 303 302 301 300 308 308 307 306 306 305 305 305 305 306 308 309 311 313 316 316 313 313 313 314 311 310 310 310 308 303 300 301 310 311 310 308 308 309 310 310 311 312 312 314 312 313 311 311 312 311 309 309 309 313 320 316 314 313 316 319 317 318 323 326 334 333 319 313 313 311 309 309
313 312 313 312 312 311 311 310 310 310 311 312 302 302 301 299 298 301 309 308 307 306 306 306 306 306 306 306 306 307 308 310 310 311 312 313 312 312 313 313 313 314 310 305 304 303 306 309 308 307 309 310 310 311 315 316 314 313 311 310 312 311 311 310 312 312 316 319 311 311 309 311 314 315 314 317 322 327 333 323 311 311 311 309 308
312 311 310 310 310 310 310 309 309 309 309 301 298 298 298 297 296 298 308 308 307 306 306 306 306 307 306 307 306 306 306 307 307 308 307 308 309 310 310 311 312 313 313 313 313 312 311 310 309 309 310 310 311 311 311 312 312 312 313 313 313 312 312 312 310 310 311 314 313 311 305 309 313 312 313 314 317 318 328 318 310 310 310 309 308
311 311 310 310 309 308 309 309 308 307 310 299 298 297 296 296 296 306 308 307 306 305 305 305 305 306 306 306 307 307 307 307 310 305 307 309 307 306 305 305 307 309 311 315 308 309 315 312 311 310 310 311 309 311 311 311 310 312 314 314 313 311 308 307 305 308 308 313 314 311 308 308 311 310 311 314 315 314 323 327 310 310 309 309 307
309 308 309 309 309 308 308 308 308 307 307 303 299 297 296 295 298 306 306 305 304 304 304 304 305 305 305 305 305 305 305 306 301 296 296 305 305 306 305 305 306 306 306 309 306 302 300 302 303 303 303 302 302 303 303 302 307 309 309 308 307 308 306 304 306 307 306 309 311 311 309 307 309 310 310 312 313 312 315 329 320 309 308 308 307
308 308 308 307 307 307 307 307 307 306 305 305 297 296 297 295 303 305 304 303 303 303 303 304 304 304 304 307 307 306 305 301 294 294 294 304 305 306 306 305 304 304 305 308 309 309 304 301 299 299 299 299 299 300 301 301 301 307 307 304 306 307 305 305 302 304 306 308 309 312 308 306 309 310 309 311 311 313 315 326 323 315 307 307 306
308 308 307 305 305 306 306 307 309 306 305 305 298 296 296 296 302 305 303 302 301 302 302 302 303 303 303 305 307 303 302 298 292 293 293 301 301 303 304 304 304 304 306 307 307 307 307 308 309 310 307 306 308 307 308 304 302 308 307 307 307 306 304 304 304 304 303 305 310 314 308 307 309 310 310 309 307 311 314 321 325 320 313 313 310
Wind_Speed
3 3 3 2 2 2 2 2 2 2 2 2 1 2 2 0 1 4 1 3 1 2 2 2 2 1 2 3 4 3 2 3 1 2 1 4 6 7 10 10 10 10 11 11 11 12 12 12 11 11 11 11 11 10 9 9 9 7 9 9 9 9 9 9 8 8 7 6 4 4 4 4 4 4 4 5 5 7 8 8 7 6 5 3 3
2 3 3 3 3 3 3 2 2 1 2 2 2 1 2 2 1 2 4 4 3 2 0 3 3 3 2 1 1 1 1 2 3 3 2 0 6 6 11 10 9 9 10 10 11 12 12 12 12 12 12 12 11 12 11 10 7 8 9 10 7 8 9 10 9 8 7 7 5 4 4 4 4 4 4 5 4 6 6 7 8 6 3 3 3
2 3 3 3 3 3 3 4 4 4 1 2 2 2 0 3 2 3 3 2 2 3 1 1 2 3 3 2 1 1 0 2 3 2 3 2 3 7 7 10 10 9 9 10 10 11 12 13 13 12 12 13 12 12 12 12 10 8 7 4 4 5 8 9 10 9 9 8 8 5 5 4 4 4 4 4 4 4 4 5 6 5 3 3 3
3 3 3 3 3 4 3 1 1 1 3 1 0 2 3 3 1 0 1 3 3 2 0 0 2 2 2 4 6 5 4 5 2 3 3 3 5 2 4 5 8 9 8 9 9 11 12 13 13 13 12 13 13 13 13 13 12 11 9 8 7 7 8 9 10 10 10 9 9 8 6 6 4 4 4 3 2 3 3 4 6 4 2 3 4
3 2 2 2 2 2 1 2 1 1 3 1 2 1 3 1 1 3 2 1 2 3 2 2 1 4 5 6 4 3 4 5 4 3 3 3 1 4 2 6 4 6 7 8 9 10 11 12 12 12 12 12 13 13 13 13 13 12 11 9 9 9 9 9 10 11 11 10 10 9 8 6 5 4 4 4 3 3 2 2 5 3 1 4 4
4 4 2 3 3 3 2 2 3 2 3 1 2 1 2 1 2 4 3 4 4 5 5 4 4 3 4 4 3 3 4 4 4 5 4 4 3 1 5 1 5 4 4 8 8 9 9 10 11 11 12 12 13 13 12 13 13 12 12 10 10 9 9 9 9 11 11 11 10 9 8 7 6 5 4 4 4 3 2 2 4 3 0 5 4
4 5 3 3 2 2 2 2 2 3 2 3 2 0 2 1 3 2 2 2 2 3 3 3 3 3 3 2 2 5 4 4 4 3 4 3 3 1 1 2 3 2 2 4 5 7 8 9 10 10 11 12 12 13 13 13 13 12 12 12 12 11 9 9 9 10 11 11 10 10 9 8 7 5 4 4 4 4 2 2 3 3 2 6 4
4 3 2 2 1 2 2 1 1 2 1 3 3 2 2 3 2 3 2 4 3 3 4 3 3 2 1 2 2 4 4 3 4 3 4 4 1 2 4 4 0 3 3 4 4 5 9 8 9 10 10 10 10 13 13 14 14 14 13 12 12 11 11 10 10 10 11 11 10 10 9 8 7 6 5 4 4 4 3 2 2 2 2 5 5
3 3 2 2 1 1 2 1 3 1 2 2 1 1 3 1 1 0 2 2 3 3 3 3 4 3 2 2 3 1 1 3 3 3 6 3 5 5 2 3 1 4 2 3 2 1 7 8 9 9 9 10 10 11 12 13 14 14 13 13 12 12 12 12 9 10 11 11 10 9 9 9 8 7 6 5 4 5 4 3 2 1 1 5 6
3 2 2 1 1 1 1 4 3 3 3 2 3 1 1 2 1 2 3 4 3 3 4 3 4 4 3 1 0 1 0 2 3 4 4 4 4 3 2 4 3 3 2 1 4 3 3 6 9 8 9 10 10 11 12 12 14 14 15 14 13 12 12 13 10 10 11 11 10 10 9 10 9 8 7 6 6 5 5 4 3 1 2 4 8
3 3 2 2 1 4 13 15 13 10 7 3 4 3 1 1 1 0 1 1 1 2 4 2 3 4 4 1 1 0 1 1 2 5 1 5 4 4 6 5 2 3 3 3 3 2 1 5 4 5 6 11 11 11 11 12 12 13 14 15 14 13 12 13 12 10 10 11 11 10 10 10 10 9 8 7 7 6 6 5 5 4 4 3 8
5 5 3 2 9 7 4 6 6 5 5 5 4 2 2 2 2 1 1 1 2 4 2 2 3 5 6 2 1 1 2 2 2 4 3 4 3 3 4 5 5 3 5 5 5 1 0 1 4 4 3 6 10 10 11 11 10 11 13 15 15 14 14 14 14 11 10 11 11 11 10 11 10 10 9 8 7 7 7 6 6 5 6 5 8
6 5 4 9 6 6 6 6 4 4 5 3 2 5 2 1 0 1 2 0 1 3 3 4 4 5 2 4 4 3 2 3 1 4 2 2 2 2 4 4 5 5 4 4 4 2 1 3 3 2 1 1 5 9 10 11 11 11 13 14 14 15 16 16 15 13 10 11 11 11 11 11 10 10 9 9 8 8 7 7 7 6 5 5 9
2 2 8 7 3 1 2 3 3 5 3 2 4 2 1 1 0 0 0 2 0 2 2 3 3 1 2 4 4 4 0 0 0 2 3 1 2 1 3 2 4 4 5 5 4 4 5 5 3 3 3 5 4 3 5 7 8 12 13 13 13 14 16 17 16 15 11 10 11 11 10 10 10 10 9 8 8 8 8 7 8 7 6 5 8
10 12 8 3 1 1 2 3 5 4 4 5 3 4 4 4 3 2 1 2 3 1 2 2 2 3 2 1 2 2 2 2 0 2 3 2 2 1 4 4 5 4 4 3 3 5 5 5 5 3 4 4 4 5 4 5 5 10 13 13 12 14 15 16 16 15 12 9 9 10 11 10 11 10 10 9 9 8 7 7 7 7 6 6 9
9 8 3 5 5 3 3 3 5 4 2 3 5 5 2 5 5 4 3 2 3 3 3 3 0 1 1 1 1 2 1 0 3 3 1 2 2 4 3 3 2 3 2 1 3 3 4 5 5 4 4 4 5 5 7 3 6 4 7 9 10 11 14 15 15 14 12 9 9 9 11 11 11 10 10 9 10 9 7 6 7 6 5 8 8
5 7 9 7 6 3 4 3 4 3 1 1 1 3 8 4 2 3 4 4 3 2 2 4 4 2 2 1 2 2 1 1 2 2 2 4 2 2 1 1 1 2 1 2 3 3 2 4 3 4 5 6 5 5 4 3 2 2 3 7 7 9 10 13 14 14 13 10 10 10 11 12 11 10 9 10 8 5 5 8 6 7 6 9 11
5 7 6 4 5 4 4 4 4 3 2 1 1 2 4 5 3 3 4 4 3 3 2 3 3 3 2 2 3 1 1 1 2 2 4 3 1 3 3 4 0 2 1 1 2 0 2 2 3 4 5 5 5 6 5 2 3 2 2 1 3 4 6 8 11 13 13 13 13 12 11 12 12 11 10 9 7 6 8 8 8 8 8 9 12
6 5 5 6 5 5 3 3 4 4 4 4 4 6 6 6 5 5 5 3 2 5 5 3 2 2 3 1 0 0 1 1 1 1 2 3 6 3 3 3 2 2 2 1 1 2 1 0 3 4 4 5 8 7 2 6 5 4 5 5 3 4 5 7 8 10 12 14 14 13 12 12 13 11 11 9 9 8 4 4 8 9 8 10 13
7 8 7 6 4 5 7 8 7 8 8 7 7 6 6 6 5 5 5 5 3 4 5 3 5 4 4 4 3 1 2 3 2 2 2 2 3 2 3 2 2 1 2 0 0 2 1 3 2 3 4 6 7 6 2 4 4 2 2 1 2 5 6 6 6 8 10 12 13 14 14 13 14 13 12 11 10 8 7 6 9 9 9 10 13
5 5 6 5 5 6 6 6 7 8 7 6 6 7 8 8 7 6 6 5 4 3 3 5 3 3 5 2 3 3 4 5 4 4 3 3 3 3 2 1 1 3 0 1 2 3 3 3 2 3 5 6 5 5 3 4 5 3 2 3 3 4 6 7 8 8 9 11 13 14 14 14 14 14 12 11 11 11 10 10 8 11 11 11 14
5 3 4 2 3 5 5 6 6 6 6 8 8 8 7 8 7 6 5 5 4 4 3 4 4 2 5 4 4 3 3 3 4 4 5 5 4 2 2 3 3 1 3 5 3 2 3 3 2 4 5 3 5 6 4 3 3 3 2 4 5 5 5 6 8 8 9 10 11 12 13 12 11 12 9 10 13 13 11 12 11 12 13 14 16
2 4 6 5 7 2 1 5 7 7 8 9 9 8 7 7 6 6 7 7 6 5 4 3 3 3 3 3 5 5 5 5 4 4 1 1 1 2 2 3 3 4 2 0 1 4 3 3 4 4 1 3 4 4 5 4 3 2 2 5 5 6 6 7 7 8 8 9 10 10 11 12 12 11 11 15 16 13 13 12 13 14 14 15 17
1 2 3 2 5 7 8 8 6 6 9 8 6 6 7 7 6 6 5 5 4 4 4 3 3 3 3 3 3 3 3 2 1 2 2 1 1 2 3 2 3 2 3 4 4 6 5 5 3 3 3 2 4 2 7 5 3 3 2 6 5 7 7 7 8 8 7 8 8 9 10 9 7 11 11 13 15 11 13 12 13 15 15 16 18
3 4 6 6 4 6 7 8 7 9 9 7 6 5 3 2 3 5 5 6 6 5 5 5 4 4 4 3 3 3 4 2 2 1 1 2 2 2 3 1 2 3 3 4 3 3 5 4 3 3 3 1 5 1 4 6 3 1 4 5 8 7 9 9 8 8 7 7 7 7 8 10 10 9 8 12 13 12 13 13 13 15 16 17 17
5 5 4 5 4 5 6 7 7 8 9 9 8 6 2 4 5 6 6 5 4 4 4 4 4 4 3 4 4 5 4 4 4 4 4 3 3 3 2 1 2 3 3 3 2 3 1 2 2 6 4 4 1 2 4 3 3 3 5 4 7 12 11 9 9 9 8 7 7 7 7 9 10 9 12 11 11 13 14 13 13 15 17 18 18
4 4 5 3 5 6 6 6 6 7 7 7 5 1 2 5 6 7 5 5 4 4 4 5 6 5 5 5 5 6 6 5 4 4 4 4 3 2 0 2 2 3 3 2 3 4 4 4 4 3 3 3 1 3 3 3 2 2 5 4 5 10 5 7 9 10 9 9 8 8 8 9 9 10 11 12 13 14 14 12 12 14 17 19 18
5 5 3 3 4 4 3 5 4 5 6 7 7 7 6 6 4 3 4 3 3 5 5 5 5 4 4 6 5 5 5 5 4 5 5 4 3 2 3 4 3 3 2 3 2 3 3 3 1 1 3 4 3 1 5 4 2 4 3 4 6 3 5 7 8 9 11 11 10 10 10 9 9 10 10 11 12 13 12 12 13 14 18 19 19
6 6 6 5 4 2 2 3 3 3 5 6 8 8 8 7 6 5 5 5 5 5 3 5 6 7 7 8 7 6 5 4 4 5 5 4 3 3 3 3 2 3 3 2 3 3 2 4 3 2 5 2 2 2 1 0 1 1 2 3 3 4 4 8 8 10 11 12 12 11 11 11 10 11 12 11 11 11 11 12 11 14 19 19 19
4 5 5 5 3 1 1 2 3 5 5 6 7 8 9 8 8 6 4 3 3 3 6 8 8 7 7 7 6 6 5 5 5 4 4 3 3 3 4 4 4 4 3 3 4 2 3 2 3 3 2 3 2 2 0 0 2 3 4 1 1 3 6 9 9 11 13 13 11 11 11 12 11 11 11 12 13 12 12 14 16 16 17 19 18
4 4 3 4 3 2 2 3 3 3 4 4 6 7 8 8 7 6 5 5 5 7 7 9 9 9 8 8 7 6 6 6 5 5 4 5 5 5 5 4 4 3 4 3 4 3 3 3 2 3 3 4 5 4 4 3 4 4 3 3 3 5 10 7 12 15 17 16 13 12 10 10 13 12 12 14 14 14 14 15 16 15 16 16 16
5 6 5 5 4 2 2 4 4 4 4 5 5 5 6 7 7 6 6 7 10 12 12 10 7 6 6 7 8 7 6 6 5 5 5 5 5 5 5 6 5 5 4 4 4 5 3 4 4 4 6 7 7 7 6 4 4 7 3 2 3 7 7 7 11 13 15 16 15 11 10 10 12 13 12 13 14 14 13 13 13 14 13 15 16
2 4 4 5 6 5 5 4 4 5 5 6 6 5 6 7 6 7 8 9 11 11 10 8 5 3 3 6 8 7 6 6 5 6 6 5 5 5 4 3 4 3 4 3 5 5 3 4 4 3 3 4 4 4 8 8 6 5 4 2 3 4 5 5 5 11 17 16 14 11 12 11 11 11 11 11 11 10 10 12 12 13 13 15 17
4 4 5 5 5 6 6 7 6 6 6 7 7 8 8 8 9 8 9 11 11 10 6 3 6 6 9 11 9 5 9 9 7 6 5 6 5 5 5 5 5 6 5 5 5 5 5 3 4 3 3 3 4 1 3 3 4 5 4 3 3 4 5 5 6 6 9 7 6 11 12 12 11 11 10 10 8 8 10 11 12 13 10 13 18
5 5 6 6 6 6 7 6 7 7 6 7 7 8 9 9 8 8 9 10 9 8 8 8 9 10 10 10 12 11 9 8 7 7 6 6 5 6 5 5 4 3 2 2 2 3 4 4 3 3 3 3 3 4 4 4 3 3 4 4 3 5 5 5 5 5 11 14 10 13 13 11 12 11 11 11 11 9 10 12 13 13 12 14 18
4 4 4 6 7 7 7 6 6 6 7 7 7 8 9 9 9 11 10 8 8 8 9 9 9 10 12 11 12 9 7 7 6 5 4 3 3 2 3 2 3 3 3 3 4 4 3 5 3 5 4 5 3 3 3 4 5 4 4 4 3 4 7 8 7 7 10 14 12 12 11 13 13 12 12 11 11 10 10 12 13 14 13 15 17
8 7 4 4 5 6 6 7 7 6 7 6 7 7 7 7 9 9 9 9 8 8 9 10 13 12 11 8 6 7 9 11 8 6 3 3 3 3 4 4 5 5 5 5 6 6 6 7 5 4 5 4 4 4 4 4 3 4 3 4 4 4 5 7 8 8 10 9 10 14 16 14 12 12 12 11 10 10 10 10 12 13 14 15 17
8 8 9 9 9 9 10 10 8 8 7 6 6 7 8 9 8 8 6 6 8 11 11 11 12 10 10 10 6 3 1 1 1 2 3 5 4 6 6 5 5 4 3 3 4 4 4 5 4 4 3 5 5 5 4 6 7 5 4 4 4 3 5 5 6 6 6 5 4 6 6 6 10 12 11 11 12 11 11 11 11 13 14 15 17
6 5 6 8 7 8 9 10 11 10 8 8 6 5 6 7 8 7 6 8 9 7 10 8 7 7 6 6 4 3 4 2 4 5 4 4 3 5 6 7 4 5 4 6 4 4 5 5 5 5 4 4 4 4 4 3 3 4 5 5 6 7 7 5 6 6 6 3 4 8 8 9 11 10 13 14 12 12 12 12 12 13 14 16 18
6 6 6 7 7 8 8 8 9 8 9 10 9 8 8 8 8 6 7 7 8 6 7 9 9 6 5 8 7 3 5 4 3 3 4 5 5 7 5 3 3 5 4 6 6 7 7 6 6 6 6 5 5 5 5 4 4 5 5 4 6 6 7 6 6 5 2 4 6 4 6 9 11 12 10 7 9 10 11 10 12 13 14 15 18
5 6 6 7 8 8 9 10 10 8 7 6 5 6 6 7 7 7 8 10 10 9 8 8 6 8 7 9 8 7 3 4 5 7 8 4 2 3 3 5 8 8 8 8 7 6 6 6 7 5 5 5 4 5 5 5 6 6 4 4 4 4 5 5 5 4 3 3 3 4 5 5 5 6 6 6 8 10 9 10 8 13 14 15 18
6 7 7 7 8 7 8 8 9 9 7 6 7 10 8 5 6 6 7 8 9 9 10 10 8 7 6 6 8 14 13 12 11 9 7 5 6 5 4 3 4 4 4 4 5 6 5 6 5 5 6 6 6 6 7 6 5 4 7 6 6 3 3 4 5 5 6 4 4 6 7 7 5 5 7 8 7 9 7 7 7 9 12 15 18
4 5 4 6 6 6 8 7 7 5 5 4 8 7 8 8 5 6 6 7 8 10 11 10 10 9 8 7 7 9 11 10 10 13 15 13 12 11 11 9 8 7 8 8 8 6 5 6 5 5 6 6 7 6 4 5 5 7 6 4 5 4 6 4 5 5 5 4 4 3 4 4 6 7 5 8 6 7 7 8 13 14 15 16 18
3 3 5 4 4 4 4 5 5 5 5 9 9 5 6 8 5 3 2 3 5 6 7 10 11 11 11 9 7 7 8 9 9 8 9 11 13 11 9 10 10 11 10 10 10 10 9 9 8 8 8 8 8 5 4 6 8 6 5 4 5 5 4 4 3 4 3 5 6 4 6 5 6 6 6 4 5 6 8 11 16 16 16 17 18
2 3 4 4 4 3 4 6 6 5 5 4 5 2 3 4 7 6 6 6 6 6 6 8 8 10 11 10 10 8 8 15 12 10 9 11 10 10 13 15 14 15 16 15 13 12 10 9 10 10 9 8 9 8 6 7 4 4 2 3 3 4 5 6 5 3 3 3 6 3 4 4 4 5 6 6 5 5 8 12 17 17 17 18 18
4 5 4 5 5 5 5 5 6 6 6 6 4 3 1 1 1 1 2 4 5 7 8 8 8 9 8 9 10 10 9 10 9 10 9 9 10 11 10 10 9 12 14 14 15 17 13 10 11 12 12 11 12 9 7 5 4 3 3 4 2 3 3 3 2 4 3 1 3 1 4 6 4 5 7 7 6 4 6 11 17 17 18 18 18
4 4 5 7 6 6 6 7 7 6 6 8 2 2 4 5 7 5 4 4 5 5 6 8 9 9 9 9 9 10 10 11 11 14 14 11 9 8 9 8 8 7 7 8 9 9 10 10 12 14 15 13 12 12 11 11 9 6 4 4 3 3 3 4 6 6 7 3 3 2 5 6 4 5 6 6 7 8 6 10 18 18 18 18 18
5 5 5 5 7 7 6 6 6 7 3 6 1 4 8 8 8 4 4 5 5 6 7 7 8 8 9 9 8 8 8 9 12 15 13 11 10 11 11 11 10 8 7 6 7 8 11 12 12 13 13 13 14 13 12 11 12 10 8 6 4 4 5 6 7 4 5 3 4 3 3 5 4 6 7 5 6 8 6 5 14 19 18 18 18
7 5 5 5 5 5 6 6 5 5 6 9 8 3 5 6 3 4 4 6 7 8 9 8 9 9 9 10 10 11 12 10 14 15 14 10 6 9 10 10 9 8 9 8 12 14 12 14 16 17 17 17 18 20 20 20 15 12 10 10 10 4 5 7 5 3 4 4 4 5 5 7 6 6 6 5 7 9 9 5 6 14 17 17 18
4 5 5 6 6 6 6 6 6 6 7 10 8 9 4 1 3 3 4 5 7 7 8 8 7 8 10 17 17 8 7 6 10 14 15 12 7 6 7 8 8 9 8 7 7 7 12 13 15 16 16 15 15 16 18 18 18 14 12 16 11 6 9 7 7 5 5 5 5 5 4 8 7 6 7 7 8 7 7 5 7 7 11 12 17
5 5 7 6 6 6 7 7 9 9 7 6 7 5 6 3 1 3 5 6 7 7 7 9 7 7 8 8 12 5 4 6 8 8 10 9 6 7 8 8 8 9 8 8 8 9 7 6 6 5 6 9 10 9 11 16 16 15 13 14 11 11 12 9 8 6 8 8 6 5 8 6 5 6 6 4 6 6 7 4 7 6 6 6 8
Wind_Direction
185 177 175 182 189 158 190 174 214 191 200 215 225 143 259 165 238 253 158 274 86 67 31 300 239 258 327 302 51 290 25 353 282 298 6 137 151 165 171 175 173 179 189 191 201 204 214 217 221 217 223 223 224 233 237 242 244 235 214 228 240 242 234 225 227 224 230 240 284 294 301 313 310 309 310 327 343 347 352 357 16 17 54 80 75
168 166 190 176 171 195 182 189 195 193 211 190 217 190 174 265 272 3 13 7 345 354 115 7 334 286 216 255 220 50 22 317 354 322 300 266 129 164 179 174 173 180 185 195 197 204 211 220 221 224 224 229 229 229 235 239 234 257 221 229 241 245 231 226 225 228 228 234 262 285 284 302 318 313 309 316 323 344 354 4 14 29 53 100 87
171 195 200 170 182 188 206 194 183 206 140 213 103 257 163 223 62 42 11 327 298 310 16 349 306 291 6 334 28 117 220 58 284 327 339 357 113 157 177 174 170 183 190 193 199 204 209 216 220 224 227 231 234 233 234 237 234 229 227 211 223 244 242 232 228 228 228 229 234 264 272 286 300 297 299 302 325 337 342 344 4 27 64 131 101
200 203 205 192 179 191 182 183 110 199 199 52 163 51 342 15 37 18 204 241 251 250 267 157 282 313 345 7 16 7 31 328 358 334 328 29 335 91 148 163 178 181 190 194 201 206 211 215 220 222 226 230 235 239 239 236 232 229 222 220 219 231 239 240 236 230 230 229 229 233 252 258 263 268 269 279 310 313 302 346 358 14 49 149 124
200 236 205 191 245 113 65 163 257 261 91 40 18 238 249 3 242 193 228 261 328 319 275 246 302 5 23 17 0 359 8 350 326 358 349 293 218 28 124 166 169 179 188 199 201 208 213 220 224 226 227 230 235 239 239 236 234 235 231 218 220 228 234 238 236 233 230 228 228 229 231 243 247 246 250 255 257 286 282 329 342 357 31 155 150
182 210 226 221 189 148 206 183 215 113 54 89 235 207 49 50 349 31 13 340 347 345 356 351 18 356 42 16 317 13 5 333 356 354 334 329 39 63 42 65 149 160 190 200 204 205 215 222 226 228 232 235 237 239 239 237 239 242 242 233 229 226 231 236 236 236 233 230 229 227 226 226 232 238 246 247 247 258 253 301 343 9 119 170 164
197 180 205 246 160 144 198 223 191 127 177 167 230 288 190 126 85 331 14 323 335 320 316 10 353 5 26 312 337 26 2 335 357 347 313 320 49 85 160 108 44 90 147 164 196 207 218 223 232 234 233 239 238 238 240 235 236 240 245 244 238 242 241 238 239 238 236 232 229 224 223 222 228 239 242 244 250 262 235 240 341 340 203 173 177
198 180 179 223 237 160 188 271 67 44 39 38 15 331 31 35 26 10 10 334 339 327 345 345 330 345 309 324 44 44 337 335 336 328 309 296 206 269 113 81 85 126 65 98 161 200 210 221 228 233 238 239 243 245 239 238 236 233 239 241 240 237 248 246 242 243 238 235 230 224 224 223 226 239 249 245 246 257 238 247 341 70 182 186 178
208 177 158 204 249 247 147 183 66 27 25 43 291 319 21 349 71 326 31 288 343 328 314 339 340 327 348 320 48 62 301 315 291 328 297 322 9 16 352 71 160 92 129 145 153 176 192 207 229 236 241 244 245 245 248 250 248 243 238 238 236 244 247 250 237 241 244 237 231 223 221 220 222 225 233 241 240 248 244 216 258 278 167 194 177
204 187 168 190 236 273 76 64 41 22 18 355 290 293 146 96 28 354 330 26 356 328 337 344 331 313 300 324 315 213 207 302 331 295 294 13 345 7 328 174 132 98 79 136 133 184 163 196 224 235 239 241 239 238 243 246 247 248 242 240 241 244 248 252 246 233 242 241 234 226 221 218 222 224 224 227 233 241 249 228 225 189 180 207 175
192 192 174 177 222 26 31 26 4 342 335 291 256 230 89 79 82 311 309 211 307 336 298 296 301 302 300 281 262 169 181 249 328 301 341 32 338 7 332 6 31 115 182 142 183 137 167 172 188 207 227 233 233 233 236 239 244 246 247 246 243 241 241 247 251 233 228 241 242 234 225 221 224 228 228 227 230 235 240 239 212 213 214 212 188
190 188 163 161 52 54 125 161 175 188 229 272 291 302 145 164 208 184 286 320 337 277 253 26 322 299 279 296 310 238 221 136 257 278 55 19 348 345 7 358 322 62 44 25 355 41 204 223 207 152 225 216 225 234 231 233 238 241 246 247 247 244 241 245 247 243 226 232 234 229 227 228 226 232 232 234 234 237 239 241 235 221 211 207 190
196 180 154 84 139 188 172 174 180 193 216 228 306 295 335 106 176 176 204 67 304 306 34 28 332 298 314 335 310 293 237 125 215 251 61 53 360 328 69 325 306 63 43 20 338 307 41 347 12 28 302 155 209 226 227 231 234 239 243 244 243 245 245 248 246 242 229 223 220 226 233 229 228 234 242 242 242 242 240 239 234 205 211 208 180
193 124 72 124 157 223 77 133 188 217 233 226 234 236 217 239 120 13 285 132 141 311 49 33 296 308 344 331 317 304 40 205 49 354 10 83 338 334 88 283 346 37 42 5 322 7 9 360 17 7 352 330 301 207 209 226 231 233 239 239 235 238 242 244 245 242 232 222 216 220 228 237 231 227 230 236 242 244 240 237 239 215 204 195 183
13 31 13 350 283 66 147 180 209 225 240 261 256 220 185 176 184 185 229 222 182 192 114 104 280 332 272 10 304 354 333 352 46 1 290 85 258 244 69 39 330 53 19 322 350 16 10 342 344 346 335 315 300 302 227 207 224 219 228 233 231 232 238 242 245 245 238 219 220 226 232 234 233 229 228 224 229 232 232 233 235 224 199 182 192
17 43 236 251 216 195 131 236 225 200 239 287 298 296 249 180 174 183 175 229 208 186 133 140 151 341 334 210 264 14 283 81 324 273 258 154 264 73 38 360 286 76 256 254 58 39 360 326 303 331 323 300 292 283 281 195 182 194 230 241 240 232 233 240 246 246 239 215 226 231 233 231 232 233 231 228 232 235 231 216 233 186 183 165 193
120 167 218 218 203 164 165 213 271 249 206 183 313 312 317 305 239 186 183 190 229 201 174 159 174 159 214 234 256 219 241 17 330 305 13 2 343 43 84 258 208 108 47 94 87 71 341 289 325 337 312 292 281 275 277 183 160 208 220 224 232 233 234 240 246 250 245 218 220 227 234 233 233 234 230 231 234 247 299 274 220 180 178 185 190
170 175 214 188 201 166 157 178 226 270 268 257 287 280 275 280 250 233 220 212 216 253 202 158 152 168 225 201 163 182 253 314 42 290 339 295 20 19 322 273 58 54 11 88 70 10 240 299 334 313 291 288 290 284 289 7 99 37 8 287 212 252 256 255 256 253 251 240 233 238 235 234 234 232 233 228 232 239 209 254 249 179 178 185 173
151 184 214 206 182 155 129 55 4 332 279 237 210 219 229 243 225 207 208 213 216 241 247 188 156 174 186 217 30 114 117 97 241 355 305 323 346 311 274 298 41 360 1 51 40 285 253 295 283 281 297 300 289 276 302 87 72 78 55 49 357 309 283 267 262 261 256 250 243 232 237 239 237 238 239 229 220 231 223 202 255 174 186 182 176
201 195 197 193 167 127 135 173 184 216 230 224 221 216 224 239 233 207 191 188 203 238 266 215 174 182 187 166 180 200 207 210 230 212 247 281 287 289 291 332 11 328 257 182 298 271 273 274 263 286 283 279 273 276 78 129 128 111 112 302 269 276 279 274 268 263 263 258 251 245 238 237 240 237 233 237 218 226 231 213 243 188 187 183 182
236 195 195 177 172 160 170 176 197 212 224 231 228 222 222 226 221 208 196 191 193 206 254 281 223 193 153 171 189 187 200 200 200 202 213 238 266 270 290 292 315 290 160 232 245 222 215 246 240 252 264 263 267 269 113 134 114 123 152 189 246 266 277 277 274 272 268 264 258 250 243 237 233 235 233 245 224 220 213 219 217 196 180 184 179
263 236 179 172 191 168 176 192 222 231 222 226 222 221 227 234 227 209 191 194 183 181 199 276 274 257 169 165 177 194 235 213 202 204 220 214 237 274 285 328 304 277 310 277 222 219 244 223 217 267 266 325 328 305 99 86 101 110 154 205 236 254 267 274 277 275 272 267 264 261 255 246 247 245 233 237 247 225 214 208 209 193 181 183 183
319 16 13 303 287 356 13 287 255 236 238 228 222 215 220 233 231 209 198 191 178 174 186 233 273 258 240 197 192 192 192 203 202 193 175 216 277 280 321 290 285 306 260 305 291 263 228 225 212 230 22 333 289 305 101 99 71 28 188 216 235 258 265 270 270 273 273 272 270 268 264 256 242 238 234 231 230 228 211 211 205 187 180 182 185
288 258 229 218 188 188 207 226 239 250 246 244 246 226 216 217 212 207 206 195 174 175 176 191 246 254 249 231 233 241 242 187 208 192 162 203 182 257 263 273 291 275 312 301 264 259 243 246 213 174 150 259 281 264 120 106 88 21 295 227 243 249 252 257 268 272 275 273 277 274 268 260 255 259 238 236 237 219 224 217 200 189 180 182 185
209 218 223 226 219 187 195 202 213 244 264 278 258 263 293 300 212 192 194 190 185 179 180 187 206 234 233 224 244 246 250 231 183 154 179 187 206 251 243 280 280 285 273 278 274 260 189 211 234 166 130 247 282 120 109 118 98 5 310 334 310 273 247 244 253 263 266 271 269 270 265 256 241 235 248 256 246 217 226 221 203 196 186 184 188
265 233 242 254 245 243 212 207 198 215 240 254 255 244 242 225 204 178 192 195 182 188 195 188 199 226 229 217 220 232 232 224 203 181 190 193 217 227 271 262 263 277 280 273 280 337 297 280 193 139 165 203 326 10 81 53 101 21 339 313 300 291 264 229 244 253 257 263 265 260 256 255 247 228 230 245 244 237 223 221 210 193 190 183 189
272 286 272 259 244 237 235 221 218 208 212 224 240 285 208 217 208 199 194 201 192 179 193 199 204 205 225 232 217 219 230 231 207 191 181 202 209 218 268 301 279 263 274 302 321 266 258 244 236 176 164 133 165 245 92 69 148 51 334 288 283 291 235 215 237 250 261 263 263 264 256 249 244 234 221 227 237 228 225 216 206 193 191 189 190
311 304 295 277 273 265 208 196 202 198 199 198 207 218 221 235 241 224 223 246 246 219 199 200 218 217 222 232 237 234 223 215 201 194 202 210 194 191 191 218 252 286 312 294 273 281 313 310 305 208 152 170 184 154 143 164 183 155 284 330 300 285 197 224 238 255 266 270 268 266 262 252 241 231 228 234 234 229 216 213 202 200 190 190 192
321 324 317 308 291 254 179 189 208 204 201 201 200 198 194 209 218 205 216 229 232 239 259 249 220 212 207 221 226 234 241 226 207 201 202 196 193 196 208 225 232 256 284 285 283 293 308 350 327 333 342 311 233 186 171 159 145 246 286 257 287 321 219 225 243 254 258 262 264 264 262 251 245 235 224 221 232 231 212 208 198 205 191 192 194
316 314 313 299 283 307 225 193 204 237 227 212 206 204 200 207 207 207 211 215 228 229 227 246 248 237 217 206 210 218 225 231 211 207 199 196 193 197 211 217 204 217 226 260 272 278 285 275 258 274 300 327 352 344 3 331 281 255 263 240 334 305 265 219 246 257 257 257 257 258 258 254 243 234 220 220 225 224 216 202 195 207 197 195 193
315 311 306 296 299 226 219 226 212 225 225 228 214 209 206 211 209 215 218 211 228 247 229 228 230 225 222 218 211 214 215 219 211 205 207 197 197 201 215 218 227 214 226 230 267 241 231 263 279 324 319 324 322 313 305 277 269 247 251 276 258 266 277 250 268 285 285 280 261 247 243 254 253 238 232 226 225 224 222 214 202 199 203 196 190
333 329 319 307 301 284 201 203 224 223 223 228 227 224 210 212 211 214 222 203 207 224 230 227 225 220 227 223 213 213 212 223 211 204 203 200 195 201 207 208 212 211 206 218 229 263 265 274 269 268 271 267 268 271 275 270 255 244 221 224 245 258 261 258 266 265 270 267 258 230 231 236 242 240 235 231 225 224 222 214 200 198 201 189 185
270 293 297 290 292 298 291 270 243 226 216 226 227 226 211 217 222 227 235 231 218 221 231 231 206 213 289 269 242 215 215 229 216 205 207 205 203 206 212 221 231 228 221 225 239 258 261 248 256 264 271 289 282 261 270 270 272 258 231 242 276 272 258 258 262 273 271 267 255 216 218 226 234 240 236 233 231 221 209 200 202 195 199 185 181
315 308 299 300 305 304 307 303 281 245 223 223 222 219 221 216 219 222 232 237 231 229 233 199 221 204 213 230 232 222 230 219 215 208 201 202 202 198 198 206 215 223 207 220 234 242 256 246 266 271 272 252 276 280 294 292 289 287 279 256 264 281 288 275 263 255 273 282 236 213 216 221 226 231 231 231 228 219 200 195 195 193 193 188 181
321 315 315 308 302 292 278 262 274 279 258 236 230 223 220 230 232 230 230 235 233 230 229 233 227 220 210 212 223 211 225 223 217 208 202 209 205 210 212 197 207 208 210 221 259 267 270 269 261 277 264 266 254 264 264 268 269 296 300 297 293 289 286 290 300 300 290 279 234 213 213 217 227 227 222 222 222 211 204 199 193 187 191 192 183
291 279 289 304 305 304 303 295 268 261 268 262 247 241 231 217 226 238 239 237 240 234 232 241 248 237 232 219 217 216 221 232 226 221 208 207 217 242 258 257 243 231 230 243 238 246 254 267 245 249 248 262 253 265 304 302 283 257 250 260 259 268 282 283 282 281 268 260 240 217 210 217 224 225 222 220 220 213 204 200 196 190 187 191 184
339 332 315 291 290 294 297 298 296 267 251 267 286 302 310 281 243 237 243 242 233 227 231 236 243 243 238 231 232 226 211 223 219 219 219 228 227 226 224 229 227 218 217 208 217 216 230 239 248 234 243 250 249 253 242 265 289 288 283 272 255 243 251 266 267 267 266 248 225 205 211 217 221 226 224 221 218 214 214 210 199 193 187 185 184
345 346 344 354 351 342 325 309 300 311 316 299 255 237 247 271 301 293 292 273 253 238 227 232 247 257 253 240 236 250 248 268 245 213 213 236 235 250 257 255 259 266 283 236 218 237 248 257 256 274 256 262 275 262 253 256 253 263 264 260 268 271 265 272 273 274 285 261 235 222 228 234 233 233 228 220 216 210 210 209 201 197 190 185 184
330 335 342 337 340 337 339 342 338 333 333 340 344 358 330 306 288 304 297 298 286 299 295 277 266 264 310 324 263 233 247 228 264 270 255 249 251 247 236 243 252 271 242 255 262 260 254 255 253 247 263 261 260 281 267 251 251 250 260 266 270 256 255 243 267 273 263 260 219 220 213 210 216 217 221 219 214 210 208 205 199 198 193 188 185
320 334 345 345 347 340 340 336 338 338 352 354 36 23 22 10 5 353 346 347 342 332 315 317 335 2 328 301 301 315 281 265 246 253 247 237 228 246 246 266 260 247 263 266 245 240 245 248 242 243 230 242 250 247 248 238 247 260 245 237 251 267 278 275 248 258 284 339 324 313 241 219 227 225 225 214 224 220 215 214 209 200 196 191 187
314 335 344 340 334 335 335 336 334 340 355 8 50 26 22 16 9 1 354 349 340 327 323 314 316 313 304 283 287 289 272 260 264 281 275 271 297 294 283 248 235 227 222 223 232 235 239 250 260 250 248 243 246 255 256 243 229 223 232 223 233 230 248 283 301 307 322 321 306 282 270 269 210 205 196 200 215 213 220 213 213 209 201 193 190
13 15 5 349 336 337 339 343 339 338 344 346 52 50 44 32 9 2 355 346 335 329 326 325 318 306 295 297 302 304 306 304 291 275 277 273 250 237 240 270 285 282 277 266 243 233 240 251 254 261 256 244 235 230 236 235 229 228 246 244 250 246 272 288 292 271 266 262 265 271 271 273 251 220 191 213 211 187 197 188 206 202 205 197 192
8 5 345 321 329 336 333 329 327 331 328 343 23 36 50 51 28 11 3 348 344 337 330 323 312 299 297 294 283 290 293 279 272 268 266 266 264 255 247 239 238 250 271 274 278 277 269 261 262 259 258 256 247 243 248 262 235 230 215 209 223 241 252 258 275 303 285 249 233 241 267 260 249 255 222 211 208 178 188 198 203 200 197 196 194
357 329 304 325 332 327 316 315 313 318 327 323 338 17 27 19 23 2 343 342 337 330 327 325 322 318 311 309 299 290 283 281 281 281 273 259 255 262 261 255 256 260 250 243 257 262 257 260 263 261 268 265 262 245 244 253 256 252 235 221 220 209 217 229 237 248 264 270 270 289 286 292 297 295 289 242 212 183 195 189 190 197 193 193 193
298 292 320 316 302 299 305 306 311 310 300 349 15 10 347 1 354 0 337 338 329 318 310 301 304 309 313 315 321 308 302 298 297 293 287 286 276 260 266 269 265 259 260 251 240 249 271 274 270 262 256 272 274 262 250 255 253 254 278 250 221 224 220 225 231 251 272 3 356 314 286 287 313 296 289 282 261 196 195 187 186 191 193 193 193
347 333 318 309 310 314 321 317 312 318 325 347 306 236 251 307 358 295 304 308 305 308 306 303 291 289 297 300 299 304 303 310 312 314 306 295 287 278 264 252 246 251 253 256 261 261 253 245 250 253 249 245 252 262 280 301 311 295 277 258 272 273 272 255 278 262 244 128 249 301 296 292 283 294 286 290 288 251 206 188 184 188 190 194 194
321 318 323 320 318 322 323 318 315 330 337 31 317 286 261 239 238 214 259 266 277 279 289 294 296 289 274 266 263 267 278 273 271 272 278 282 288 293 289 271 253 243 242 248 246 242 243 239 240 246 250 250 254 254 257 269 282 279 265 263 255 259 270 288 289 277 277 249 246 242 267 274 287 290 281 283 287 282 250 190 184 186 189 192 193
325 326 318 320 324 316 314 314 316 313 325 35 139 241 244 244 253 271 276 277 271 284 293 299 296 301 304 301 291 287 281 278 273 268 264 266 266 269 272 275 279 279 272 255 256 253 246 239 236 240 244 242 244 250 250 259 268 272 285 292 274 258 272 270 264 269 263 237 217 224 262 266 248 246 268 278 288 289 265 186 194 184 188 190 191
337 329 321 307 303 306 311 313 318 333 331 334 327 321 287 287 309 274 295 297 301 307 307 308 308 303 303 304 312 313 309 327 18 9 0 331 294 277 271 270 266 266 270 271 263 256 243 244 250 246 245 242 237 237 241 241 240 252 268 268 256 253 254 256 256 263 261 230 225 218 248 259 246 244 259 248 253 256 264 207 191 196 187 188 189
321 325 324 330 331 336 334 332 338 329 327 314 6 70 81 242 223 299 297 298 295 298 302 300 302 305 299 308 310 348 13 35 19 25 6 349 327 316 298 289 283 275 271 270 269 264 265 250 239 240 244 244 244 245 242 234 231 232 236 247 245 234 244 238 252 248 271 262 237 208 241 242 253 241 247 256 267 262 259 204 177 187 189 190 192
315 313 326 328 329 327 325 319 319 312 297 305 84 48 65 15 254 296 305 315 305 299 298 293 292 297 305 313 319 64 14 30 44 36 28 12 345 343 333 320 307 295 294 320 320 314 313 313 306 296 275 257 249 239 237 241 236 230 230 240 242 236 243 240 244 252 257 250 250 209 235 246 245 241 218 249 251 248 250 207 173 156 163 150 182